Weather Roundup
Issued by NWS Springfield, MO

Home | Current Version | Previous Version | Text Only | Print | Product List | Glossary On
Versions: 1 2 3 4 5 6 7 8 9 10 11 12 13 14 15 16 17 18 19 20 21 22 23 24 25 26 27 28 29 30 31 32 33 34 35 36 37 38 39 40 41 42 43 44 45 46 47 48 49 50
000
NZUS99 KSGF 242307
HRRSGF

HOURLY WEATHER
NATIONAL WEATHER SERVICE SPRINGFIELD MO
600 PM CDT FRI MAR 24 2017

......SGF CWA......

CITY           SKY/WX    TMP DP  RH WIND       PRES   REMARKS
SPRINGFIELD    RAIN      60  58  92 W3        29.91R FOG
JOPLIN         CLOUDY    62  59  90 SE10      29.82S
WEST PLAINS    CLOUDY    71  53  52 S18G24    29.94F
ROLLA          CLOUDY    71  53  52 S16       29.92F
OSAGE BEACH    CLOUDY   N/A N/A N/A W6        29.92F
BRANSON        TSTM      61  57  88 SE9       29.91R FOG

......SURROUNDING SGF CWA......

CITY           SKY/WX    TMP DP  RH WIND       PRES   REMARKS
CHANUTE        CLOUDY    65  56  72 SE15G23   29.79F
PARSONS        PTSUNNY   66  57  72 SE10G18   29.76F
COFFEYVILLE    MOSUNNY   68  57  68 SE23      29.74F
EMPORIA        CLOUDY    67  56  67 SE17G26   29.73F
GROVE OK       PTSUNNY   64  61  88 S7          N/A
ROGERS AR      LGT RAIN  59  57  94 E9        29.86R
SILOAM SPRINGS CLOUDY    61  55  82 SE16      29.81F
HARRISON AR    HVY RAIN  63  58  83 S14       29.91R
NEAR YELLVILLE CLOUDY    73  50  43 S12G22    29.87S

......KANSAS AND MISSOURI......

CITY           SKY/WX    TMP DP  RH WIND       PRES   REMARKS
KANSAS CTY INT CLOUDY    60  59  96 SE10      29.84F
DOWNTOWN KC    CLOUDY    63  59  87 VRB6      29.84S
COLUMBIA       CLOUDY    61  59  93 N5        29.93R
SEDALIA        LGT RAIN  61  58  90 S12       29.92R FOG
ST JOSEPH      CLOUDY    59  57  93 E8        29.85F
ST LOUIS       CLOUDY    76  53  44 S12       29.95F
SPIRIT OF STL  CLOUDY    74  53  48 S8        29.93F
KIRKSVILLE     RAIN      56  56 100 SE6       29.93F FOG
WICHITA        TSTM      61  32  33 N7        29.73R
TOPEKA         CLOUDY    69  59  70 E12       29.78F
OLATHE         CLOUDY    61  59  93 S10       29.84S

......TENNESSEE......

CITY           SKY/WX    TMP DP  RH WIND       PRES   REMARKS
MEMPHIS        CLOUDY    75  59  57 SE20G28   29.98F
NASHVILLE      CLOUDY    73  53  49 S15       30.17F

......ARKANSAS.......

CITY           SKY/WX    TMP DP  RH WIND       PRES   REMARKS
FAYETTEVILLE   CLOUDY    59  57  93 VRB3      29.83F
FT SMITH       LGT RAIN  63  60  90 E6        29.79F
LITTLE ROCK    CLOUDY    75  58  55 S14G31    29.91F

......OKLAHOMA.......

CITY           SKY/WX    TMP DP  RH WIND       PRES   REMARKS
TULSA          MOSUNNY   71  55  56 SE17      29.71F
PONCA CITY     SUNNY     76  27  16 SW13G22   29.67S
MCALESTER      SUNNY     71  53  52 S14G21    29.75F
OKLAHOMA CITY  CLOUDY    72  29  20 S16G29    29.67S

......IOWA............

CITY           SKY/WX    TMP DP  RH WIND       PRES   REMARKS
DES MOINES     LGT RAIN  49  46  90 NE12      29.95R FOG
QUAD CITIES    CLOUDY    64  49  57 W13       29.91F

......ILLINOIS........

CITY           SKY/WX    TMP DP  RH WIND       PRES   REMARKS
QUINCY         LGT RAIN  60  56  86 W12       29.94R
CHICAGO        CLOUDY    51  40  65 NE21G26   29.95R



USA.gov is the U.S. government's official web portal to all federal, state and local government web resources and services.